* Astronomy

Members Login
Post Info TOPIC: Asteroid 2010 OE22


L

Posts: 131433
Date:
Asteroid 2010 OE22
Permalink  
 


Orbital elements:
2010 OE22 Earth MOID = 0.1772 AU
Epoch 2010 July 23.0 TT = JDT 2455400.5 MPC
M 8.47276 (2000.0) P Q
n 0.25627280 Peri. 79.18302 -0.24271704 +0.96999762
a 2.4547148 Node 176.67212 -0.95703070 -0.23708049
e 0.5964063 Incl. 13.84805 -0.15868419 -0.05382797
P 3.85 H 21.5 G 0.15 U 9

MPEC 2010 - O29


__________________
Page 1 of 1  sorted by
 
Quick Reply

Please log in to post quick replies.



Create your own FREE Forum
Report Abuse
Powered by ActiveBoard